EN

Hourly Weather Trofimovo

Today, 14 April, Wednesday

Time Temperature Precipitation Wind Pressure Humidity
00:00 +10°C° 0 mm 3 mps 745 mmHg 88%
01:00 +9°C° 0 mm 3 mps 745 mmHg 91%
02:00 +8°C° 0 mm 2 mps 745 mmHg 94%
03:00 +8°C° 0 mm 2 mps 745 mmHg 94%
04:00 +8°C° 0 mm 2 mps 745 mmHg 94%
05:00 +7°C° 0 mm 2 mps 745 mmHg 94%
06:00 +8°C° 0 mm 2 mps 744 mmHg 88%
07:00 +10°C° 0 mm 2 mps 744 mmHg 83%
08:00 +12°C° 0 mm 2 mps 744 mmHg 77%
09:00 +13°C° 0 mm 2 mps 744 mmHg 72%
10:00 +14°C° 0 mm 2 mps 744 mmHg 67%
11:00 +15°C° 0 mm 2 mps 744 mmHg 62%
12:00 +15°C° 0 mm 2 mps 743 mmHg 61%
13:00 +16°C° 0 mm 2 mps 743 mmHg 60%
14:00 +16°C° 0 mm 1 mps 743 mmHg 58%
15:00 +16°C° 0.1 mm 1 mps 742 mmHg 60%
16:00 +16°C° 0.1 mm 1 mps 742 mmHg 62%
17:00 +16°C° 0.1 mm 1 mps 742 mmHg 64%
18:00 +15°C° 0.1 mm 1 mps 742 mmHg 68%
19:00 +14°C° 0.1 mm 1 mps 742 mmHg 72%
20:00 +12°C° 0.1 mm 2 mps 742 mmHg 76%
21:00 +12°C° 0.1 mm 1 mps 741 mmHg 77%
22:00 +12°C° 0.1 mm 1 mps 741 mmHg 78%
23:00 +12°C° 0.1 mm 1 mps 741 mmHg 79%

Tomorrow, 15 April, Thursday

Time Temperature Precipitation Wind Pressure Humidity
00:00 +11°C° 0 mm 1 mps 741 mmHg 80%
01:00 +11°C° 0 mm 1 mps 741 mmHg 82%
02:00 +11°C° 0 mm 1 mps 741 mmHg 83%
03:00 +10°C° 0.1 mm 1 mps 740 mmHg 81%
04:00 +9°C° 0.1 mm 2 mps 740 mmHg 80%
05:00 +9°C° 0.1 mm 2 mps 740 mmHg 78%
06:00 +10°C° 0 mm 3 mps 740 mmHg 73%
07:00 +12°C° 0 mm 4 mps 740 mmHg 68%
08:00 +13°C° 0 mm 4 mps 740 mmHg 63%
09:00 +14°C° 0.1 mm 4 mps 740 mmHg 59%
10:00 +15°C° 0.1 mm 5 mps 740 mmHg 55%
11:00 +16°C° 0.1 mm 5 mps 739 mmHg 50%
12:00 +16°C° 0.5 mm 5 mps 739 mmHg 51%
13:00 +17°C° 0.5 mm 4 mps 739 mmHg 52%
14:00 +17°C° 0.5 mm 4 mps 739 mmHg 53%
15:00 +15°C° 0.5 mm 4 mps 739 mmHg 59%
16:00 +14°C° 0.5 mm 3 mps 739 mmHg 65%
17:00 +14°C° 0.5 mm 2 mps 739 mmHg 71%
18:00 +13°C° 0.4 mm 2 mps 739 mmHg 73%
19:00 +13°C° 0.4 mm 2 mps 739 mmHg 76%
20:00 +12°C° 0.4 mm 2 mps 740 mmHg 79%
21:00 +11°C° 0 mm 3 mps 740 mmHg 80%
22:00 +10°C° 0 mm 3 mps 740 mmHg 81%
23:00 +10°C° 0 mm 3 mps 740 mmHg 82%

Day after tomorrow, 16 April, Friday

Time Temperature Precipitation Wind Pressure Humidity
00:00 +10°C° 0 mm 3 mps 740 mmHg 83%
01:00 +9°C° 0 mm 3 mps 740 mmHg 85%
02:00 +9°C° 0 mm 3 mps 740 mmHg 87%
03:00 +8°C° 0.1 mm 3 mps 740 mmHg 88%
04:00 +8°C° 0.1 mm 3 mps 740 mmHg 90%
05:00 +8°C° 0.1 mm 2 mps 741 mmHg 91%
06:00 +9°C° 0.2 mm 3 mps 741 mmHg 90%
07:00 +9°C° 0.2 mm 3 mps 741 mmHg 88%
08:00 +10°C° 0.2 mm 3 mps 741 mmHg 86%
09:00 +11°C° 0.2 mm 4 mps 741 mmHg 80%
10:00 +12°C° 0.2 mm 4 mps 741 mmHg 74%
11:00 +13°C° 0.2 mm 5 mps 741 mmHg 69%
12:00 +14°C° 0.1 mm 5 mps 742 mmHg 61%
13:00 +14°C° 0.1 mm 5 mps 742 mmHg 53%
14:00 +15°C° 0.1 mm 5 mps 742 mmHg 45%
15:00 +14°C° 0 mm 5 mps 742 mmHg 50%
16:00 +13°C° 0 mm 5 mps 742 mmHg 55%
17:00 +12°C° 0 mm 4 mps 742 mmHg 60%
18:00 +11°C° 0 mm 4 mps 743 mmHg 66%
19:00 +9°C° 0 mm 3 mps 743 mmHg 72%
20:00 +8°C° 0 mm 2 mps 743 mmHg 77%
21:00 +9°C° 0 mm 1 mps 744 mmHg 77%
22:00 +8°C° 0 mm 1 mps 744 mmHg 78%
23:00 +7°C° 0 mm 0 mps 744 mmHg 78%

17 April, Saturday

Time Temperature Precipitation Wind Pressure Humidity
00:00 +8°C° 0 mm 1 mps 744 mmHg 78%
01:00 +8°C° 0 mm 1 mps 744 mmHg 79%
02:00 +7°C° 0 mm 1 mps 744 mmHg 80%
03:00 +7°C° 0 mm 1 mps 744 mmHg 81%
04:00 +6°C° 0 mm 2 mps 744 mmHg 82%
05:00 +6°C° 0 mm 2 mps 744 mmHg 83%
06:00 +7°C° 0 mm 2 mps 744 mmHg 82%
07:00 +9°C° 0 mm 3 mps 744 mmHg 81%
08:00 +10°C° 0 mm 3 mps 744 mmHg 81%
09:00 +10°C° 0.2 mm 4 mps 744 mmHg 82%
10:00 +9°C° 0.2 mm 5 mps 744 mmHg 84%
11:00 +10°C° 0.2 mm 5 mps 744 mmHg 85%
12:00 +11°C° 0.2 mm 6 mps 744 mmHg 79%
13:00 +13°C° 0.2 mm 6 mps 744 mmHg 73%
14:00 +14°C° 0.2 mm 7 mps 743 mmHg 68%
15:00 +14°C° 0.7 mm 6 mps 743 mmHg 70%
16:00 +13°C° 0.7 mm 6 mps 743 mmHg 73%
17:00 +13°C° 0.7 mm 6 mps 743 mmHg 75%
18:00 +12°C° 0.5 mm 5 mps 744 mmHg 79%
19:00 +10°C° 0.5 mm 5 mps 744 mmHg 83%
20:00 +10°C° 0.5 mm 4 mps 745 mmHg 88%
21:00 +8°C° 0 mm 4 mps 745 mmHg 88%
22:00 +8°C° 0 mm 4 mps 745 mmHg 89%
23:00 +7°C° 0 mm 4 mps 746 mmHg 90%

18 April, Sunday

Time Temperature Precipitation Wind Pressure Humidity
00:00 +7°C° 0 mm 4 mps 746 mmHg 89%
01:00 +7°C° 0 mm 4 mps 746 mmHg 88%
02:00 +7°C° 0 mm 3 mps 746 mmHg 87%
03:00 +7°C° 0 mm 3 mps 747 mmHg 87%
04:00 +6°C° 0 mm 2 mps 747 mmHg 87%
05:00 +6°C° 0 mm 2 mps 747 mmHg 88%
06:00 +7°C° 0 mm 2 mps 747 mmHg 82%
07:00 +8°C° 0 mm 3 mps 747 mmHg 76%
08:00 +10°C° 0 mm 3 mps 747 mmHg 70%
09:00 +10°C° 0 mm 3 mps 748 mmHg 67%
10:00 +11°C° 0 mm 4 mps 748 mmHg 65%
11:00 +12°C° 0 mm 4 mps 748 mmHg 62%
12:00 +11°C° 0 mm 4 mps 748 mmHg 69%
13:00 +9°C° 0 mm 5 mps 748 mmHg 76%
14:00 +8°C° 0 mm 5 mps 749 mmHg 83%
15:00 +8°C° 0 mm 5 mps 749 mmHg 81%
16:00 +8°C° 0 mm 5 mps 749 mmHg 80%
17:00 +8°C° 0 mm 4 mps 749 mmHg 78%
18:00 +7°C° 0 mm 4 mps 749 mmHg 81%
19:00 +8°C° 0 mm 3 mps 749 mmHg 84%
20:00 +7°C° 0 mm 2 mps 750 mmHg 87%
21:00 +7°C° 0 mm 2 mps 750 mmHg 87%
22:00 +6°C° 0 mm 2 mps 750 mmHg 86%
23:00 +5°C° 0 mm 3 mps 750 mmHg 86%

19 April, Monday

Time Temperature Precipitation Wind Pressure Humidity
00:00 +5°C° 0 mm 3 mps 750 mmHg 85%
01:00 +4°C° 0 mm 3 mps 750 mmHg 85%
02:00 +4°C° 0 mm 3 mps 750 mmHg 84%
03:00 +4°C° 0 mm 3 mps 750 mmHg 84%
04:00 +3°C° 0 mm 3 mps 750 mmHg 84%
05:00 +3°C° 0 mm 3 mps 751 mmHg 84%
06:00 +5°C° 0 mm 3 mps 751 mmHg 78%
07:00 +6°C° 0 mm 4 mps 751 mmHg 72%
08:00 +8°C° 0 mm 4 mps 751 mmHg 67%
09:00 +9°C° 0 mm 5 mps 751 mmHg 62%
10:00 +12°C° 0 mm 5 mps 752 mmHg 56%
11:00 +13°C° 0 mm 5 mps 752 mmHg 51%
12:00 +13°C° 0 mm 5 mps 752 mmHg 50%
13:00 +14°C° 0 mm 6 mps 751 mmHg 48%
14:00 +14°C° 0 mm 6 mps 751 mmHg 46%
15:00 +14°C° 0 mm 5 mps 751 mmHg 49%
16:00 +13°C° 0 mm 5 mps 751 mmHg 51%
17:00 +13°C° 0 mm 4 mps 751 mmHg 54%
18:00 +12°C° 0 mm 4 mps 751 mmHg 59%
19:00 +11°C° 0 mm 4 mps 751 mmHg 63%
20:00 +8°C° 0 mm 4 mps 751 mmHg 68%
21:00 +8°C° 0 mm 4 mps 751 mmHg 68%
22:00 +8°C° 0 mm 4 mps 751 mmHg 69%
23:00 +7°C° 0 mm 4 mps 751 mmHg 69%
Show more

We Need Your Consent

Meteoprog and our Service Providers may store and access personal data such as cookies, device identifiers or other similar technologies on your device and process such data to personalise content and ads, as well as provide social media features and to analyse the traffic.

  • Store and/or access information on your device

    Cookies, device identifiers or other information can be stored or accessed on your device for the purposes indicated above.

  • Personalised ads and content, ad and content measurement, audience insights, and products development

    Ads and content can be personalised based on a profile. More data can be added to better personalise ads and content. Ad and content performance can be measured. Insights about the audience who saw the ads and content can be derived. Such data can be used to develop or improve user’s experience, systems and software.

By clicking ‘I Agree’ you will allow the use of indicated cookies, device identifiers, web beacons or other similar technologies. Your settings can be changed in the browser on your device.

For certain purposes, legitimate interests may be relied on, rather than consent. You can read more about this in our Privacy and Cookie Policy.